Total_Precipitation_Accumulation
0.00 0.00 0.00 0.00 0.00 0.00 0.00 0.00 0.00 0.00 0.00 0.00 0.00 0.00 0.00 0.00 0.00 0.00 0.00 0.00 0.00 0.00 0.00 0.00 0.00 0.00 0.00 0.00 0.00 0.00 0.00 0.00 -0.00 -0.00 -0.01 -0.01 -0.01 -0.02 -0.03 -0.03 -0.03 -0.05 -0.05 -0.12 -0.38 -0.38 -0.56 -0.66 -0.41 -0.41 -0.10 -0.05 0.00 0.00 0.00 0.00 0.00 0.00 0.00 0.01 0.01 0.01 0.02 0.02 0.02 0.02 0.02 0.05 0.13 0.13 0.41 0.62 0.39 0.39 0.13 0.08 0.08 0.00 0.00 0.06 0.06 0.00 0.00 0.00 -0.08 -0.08 -0.00 -0.01 -0.00 -0.00 -0.00 0.00 0.00 0.00 0.00 0.00 0.00 0.00 0.01 0.04 0.04 0.04 0.02
0.00 0.00 0.00 0.00 0.00 0.00 0.00 0.00 0.00 0.00 0.00 0.00 0.00 0.00 0.00 0.00 0.00 0.00 0.00 0.00 0.00 0.00 0.00 0.00 0.00 0.00 0.00 0.00 0.00 0.00 0.00 0.00 0.00 0.00 -0.01 -0.02 -0.02 -0.02 -0.03 -0.05 -0.05 -0.04 -0.04 -0.06 -0.32 -0.32 -0.56 -0.74 -0.50 -0.50 -0.12 -0.03 0.00 0.00 0.00 0.00 0.00 0.00 0.00 -0.01 -0.01 -0.01 0.01 0.02 0.02 0.02 0.02 -0.01 0.10 0.10 0.24 0.59 0.69 0.69 0.35 0.21 0.21 0.00 0.00 0.00 0.00 0.01 0.00 -0.00 -0.08 -0.08 -0.00 -0.00 -0.00 -0.00 -0.00 0.00 0.00 0.00 0.00 0.00 0.00 0.00 0.00 0.07 0.07 0.05 0.03
0.00 0.00 0.00 0.00 0.00 0.00 0.00 0.00 0.00 0.00 0.00 0.00 0.00 0.00 0.00 0.00 0.00 0.00 0.00 0.00 0.00 0.00 0.00 0.00 0.00 0.00 0.00 0.00 0.00 0.00 0.00 0.00 0.00 0.00 -0.01 -0.02 -0.02 -0.04 -0.04 -0.04 -0.04 -0.03 -0.03 -0.06 -0.28 -0.28 -0.47 -0.63 -0.57 -0.57 -0.39 -0.04 -0.01 -0.01 0.00 0.00 0.00 0.00 0.00 -0.01 -0.01 -0.02 0.00 0.01 0.02 0.02 0.02 -0.01 0.08 0.08 0.20 0.51 0.66 0.66 0.71 0.28 0.28 0.11 0.00 0.04 0.04 0.00 0.00 0.00 -0.09 -0.09 -0.04 0.00 0.00 0.00 0.00 0.00 0.00 0.00 -0.00 0.00 0.00 0.01 0.00 0.07 0.07 0.04 0.02
0.00 0.00 0.00 0.00 0.00 0.00 0.00 0.00 0.00 0.00 0.00 0.00 0.00 0.00 0.00 0.00 0.00 0.00 0.00 0.00 0.00 0.00 0.00 0.00 0.00 0.00 0.00 0.00 0.00 0.00 0.00 0.00 0.00 0.00 -0.01 -0.04 -0.04 -0.03 -0.03 -0.05 -0.05 -0.05 -0.03 -0.04 -0.11 -0.11 -0.41 -0.51 -0.57 -0.57 -0.37 -0.06 -0.01 -0.01 0.00 0.00 0.00 0.00 0.00 0.00 0.00 -0.01 -0.03 0.01 0.01 0.01 -0.01 -0.03 0.00 0.00 0.17 0.27 0.61 0.61 0.70 0.65 0.65 0.24 0.05 0.06 0.06 0.06 0.01 0.00 -0.10 -0.10 -0.05 0.00 0.00 0.00 0.00 0.00 0.00 0.00 -0.00 0.00 0.00 0.01 0.00 0.17 0.17 0.18 0.03
0.00 0.00 0.00 0.00 0.00 0.00 0.00 0.00 0.00 0.00 0.00 0.00 0.00 0.00 0.00 0.00 0.00 0.00 0.00 0.00 0.00 0.00 0.00 0.00 0.00 0.00 0.00 0.00 0.00 0.00 0.00 0.00 0.00 0.00 0.00 -0.03 -0.03 -0.04 -0.04 -0.03 -0.03 -0.08 -0.03 -0.02 -0.05 -0.05 -0.34 -0.42 -0.52 -0.52 -0.33 -0.19 -0.02 -0.02 0.00 0.00 0.00 0.00 0.00 0.00 0.00 0.00 -0.01 -0.01 0.01 0.01 -0.00 -0.05 -0.03 -0.03 0.17 0.25 0.41 0.41 0.67 0.69 0.69 0.27 0.13 0.15 0.15 0.16 0.07 -0.00 -0.02 -0.02 -0.06 0.00 0.00 0.00 0.00 0.00 0.00 0.00 -0.00 0.00 0.00 0.01 0.00 0.19 0.19 0.15 0.04
0.00 0.00 0.00 0.00 0.00 0.00 0.00 0.00 0.00 0.00 0.00 0.00 0.00 0.00 0.00 0.00 0.00 0.00 0.00 0.00 0.00 0.00 0.00 0.00 0.00 0.00 0.00 0.00 0.00 0.00 0.00 0.00 0.00 0.00 0.00 -0.02 -0.02 -0.05 -0.06 -0.05 -0.05 -0.08 -0.06 -0.02 -0.03 -0.03 -0.07 -0.31 -0.36 -0.36 -0.26 -0.16 -0.03 -0.03 -0.00 0.00 0.00 0.00 0.00 0.00 0.00 0.00 0.00 -0.05 -0.08 -0.08 -0.15 -0.05 -0.02 -0.02 0.06 0.22 0.36 0.36 0.62 0.64 0.64 0.63 0.54 0.70 0.70 0.25 0.17 0.04 -0.03 -0.03 -0.11 0.00 0.00 0.00 0.00 0.00 0.00 0.00 -0.01 0.00 0.00 0.00 0.00 0.08 0.08 0.09 0.04
0.00 0.00 0.00 0.00 0.00 0.00 0.00 0.00 0.00 0.00 0.00 0.00 0.00 0.00 0.00 0.00 0.00 -0.00 0.00 0.00 0.00 -0.00 0.00 0.00 0.00 0.00 0.00 0.00 0.00 0.00 0.00 0.00 0.00 0.00 0.00 -0.01 -0.01 -0.03 -0.05 -0.05 -0.05 -0.05 -0.09 -0.05 -0.02 -0.02 -0.02 -0.19 -0.24 -0.24 -0.17 -0.13 -0.07 -0.07 -0.01 0.00 0.00 0.00 0.00 0.00 0.00 -0.00 -0.00 -0.09 -0.19 -0.19 -0.38 -0.47 -0.13 -0.13 0.06 0.05 0.31 0.31 0.47 0.62 0.62 0.56 0.65 0.65 0.65 0.73 0.24 0.10 -0.02 -0.02 -0.11 -0.06 0.00 0.00 0.00 0.00 0.00 0.00 -0.01 0.00 0.00 0.00 0.00 0.10 0.10 0.08 0.03
0.00 0.00 0.00 0.00 0.00 0.00 0.00 0.00 0.00 0.00 0.00 0.00 0.00 0.00 0.00 -0.00 -0.00 -0.00 -0.00 -0.00 -0.00 0.00 -0.00 -0.00 0.00 0.00 0.00 0.00 0.00 0.00 0.00 0.00 0.00 0.00 0.00 0.00 0.00 -0.02 -0.04 -0.05 -0.05 -0.05 -0.11 -0.09 -0.01 -0.01 -0.01 -0.01 -0.02 -0.02 -0.06 -0.10 -0.07 -0.07 -0.01 0.00 0.00 0.00 0.00 0.00 0.00 -0.00 -0.00 -0.12 -0.25 -0.25 -0.37 -0.64 -0.14 -0.14 -0.12 0.07 0.25 0.25 0.42 0.47 0.47 0.59 0.54 0.47 0.47 0.77 0.75 0.26 0.02 0.02 -0.11 -0.05 -0.00 -0.00 0.00 0.00 -0.00 -0.00 -0.01 -0.00 -0.00 0.00 0.00 0.06 0.06 0.03 0.03
0.00 0.00 0.00 0.00 0.00 0.00 0.00 0.00 0.00 0.00 0.00 0.00 0.00 0.00 -0.00 -0.01 -0.01 -0.00 -0.00 -0.00 -0.00 -0.00 -0.00 0.00 -0.00 -0.00 0.00 0.00 0.00 0.00 0.00 0.00 0.00 0.00 0.00 -0.00 -0.00 -0.01 -0.04 -0.05 -0.05 -0.04 -0.04 -0.14 -0.07 -0.07 -0.01 -0.01 -0.01 -0.01 -0.00 -0.06 -0.06 -0.06 -0.04 0.00 0.00 0.00 0.00 0.00 0.00 -0.00 -0.03 -0.08 -0.28 -0.28 -0.32 -0.64 -0.44 -0.44 -0.12 0.09 0.16 0.16 0.34 0.41 0.41 0.45 0.47 0.42 0.42 0.60 0.83 0.42 0.09 0.09 0.07 -0.03 -0.00 -0.00 0.00 -0.00 -0.00 -0.00 -0.01 -0.00 -0.00 0.00 0.00 0.04 0.04 0.02 0.02
0.00 0.00 0.00 0.00 0.00 0.00 0.00 0.00 0.00 0.00 0.00 0.00 -0.00 -0.00 -0.01 -0.01 -0.01 -0.00 -0.00 -0.00 -0.00 -0.00 -0.00 -0.00 -0.00 -0.00 -0.00 0.00 0.00 0.00 0.00 0.00 0.00 0.00 0.00 0.00 0.00 -0.01 -0.03 -0.05 -0.05 -0.05 -0.06 -0.13 -0.13 -0.13 -0.02 -0.01 -0.01 -0.01 -0.00 -0.00 -0.03 -0.03 -0.01 0.00 0.00 0.00 0.00 0.00 0.00 -0.00 -0.05 -0.11 -0.26 -0.26 -0.26 -0.37 -0.57 -0.57 -0.46 0.06 0.13 0.13 0.21 0.34 0.34 0.34 0.37 0.36 0.36 0.33 0.76 0.70 0.13 0.13 0.16 0.09 -0.00 -0.00 0.00 -0.00 -0.00 -0.00 -0.00 0.00 0.00 0.00 0.00 0.04 0.04 0.00 0.01
0.00 0.00 0.00 0.00 0.00 0.00 0.00 0.00 0.00 0.00 0.00 -0.00 -0.00 -0.00 -0.01 -0.00 -0.00 -0.01 -0.01 -0.00 -0.00 -0.00 -0.00 -0.00 -0.00 -0.00 -0.00 -0.00 0.00 0.00 0.00 0.00 -0.00 -0.00 0.00 -0.00 -0.00 0.00 -0.02 -0.05 -0.05 -0.07 -0.11 -0.11 -0.16 -0.16 -0.09 -0.02 -0.02 -0.02 -0.00 -0.00 -0.00 -0.00 -0.00 0.00 0.00 0.00 0.00 0.00 0.00 0.00 -0.01 -0.10 -0.16 -0.16 -0.45 -0.41 -0.57 -0.57 -0.44 -0.15 0.12 0.12 0.20 0.32 0.32 0.35 0.35 0.36 0.36 0.39 0.71 0.64 0.46 0.46 0.19 0.24 0.00 0.00 0.00 -0.00 -0.00 -0.00 -0.00 -0.00 -0.00 0.00 0.00 0.02 0.02 0.00 0.00
0.00 0.00 0.00 0.00 0.00 0.00 0.00 0.00 0.00 0.00 -0.00 -0.00 -0.00 -0.00 -0.01 -0.00 -0.00 -0.00 -0.00 -0.00 -0.00 -0.00 -0.00 -0.00 -0.00 -0.00 -0.00 -0.00 0.00 0.00 0.00 0.00 -0.00 -0.00 0.00 0.00 0.00 0.00 -0.01 -0.03 -0.03 -0.10 -0.19 -0.14 -0.15 -0.15 -0.15 -0.03 -0.03 -0.03 -0.00 -0.00 0.00 0.00 0.00 0.00 0.00 0.00 0.00 0.00 0.00 0.00 -0.00 -0.10 -0.17 -0.17 -0.38 -0.39 -0.41 -0.41 -0.50 -0.19 0.09 0.09 0.19 0.24 0.24 0.31 0.33 0.32 0.32 0.38 0.44 0.58 0.46 0.46 0.30 0.44 0.14 0.14 0.00 -0.01 -0.01 -0.01 -0.00 0.00 0.00 0.00 0.00 0.00 0.00 0.00 0.00
0.00 0.00 0.00 0.00 0.00 0.00 0.00 0.00 0.00 0.00 -0.00 -0.00 -0.01 -0.01 -0.01 -0.01 -0.01 -0.00 -0.00 -0.00 -0.00 -0.00 -0.00 -0.00 -0.00 -0.00 0.00 -0.00 0.00 0.00 0.00 0.00 -0.00 -0.00 0.00 0.00 0.00 0.00 0.00 -0.02 -0.02 -0.06 -0.17 -0.24 -0.20 -0.20 -0.20 -0.13 -0.04 -0.04 -0.02 -0.00 0.00 0.00 0.00 0.00 0.00 0.00 0.00 0.00 0.00 -0.00 -0.00 -0.05 -0.22 -0.22 -0.27 -0.36 -0.38 -0.38 -0.43 -0.20 -0.12 -0.12 0.14 0.22 0.22 0.23 0.32 0.26 0.26 0.36 0.33 0.13 0.46 0.46 0.29 0.43 0.14 0.14 0.02 -0.02 -0.01 -0.01 0.00 0.00 0.00 0.00 0.00 -0.00 -0.00 0.00 0.00
0.00 0.00 0.00 0.00 0.00 0.00 0.00 -0.00 -0.00 -0.00 -0.00 -0.00 -0.01 -0.01 -0.00 -0.01 -0.01 -0.01 -0.01 -0.00 -0.00 -0.00 -0.00 -0.00 -0.00 -0.00 -0.00 0.00 0.00 0.00 0.00 0.00 0.00 0.00 0.00 0.00 0.00 0.00 0.00 -0.01 -0.01 -0.01 -0.09 -0.19 -0.29 -0.29 -0.22 -0.16 -0.06 -0.06 -0.03 -0.00 0.00 0.00 0.00 0.00 0.00 0.00 0.00 0.00 0.00 0.00 -0.00 -0.09 -0.23 -0.23 -0.23 -0.25 -0.31 -0.31 -0.32 -0.20 -0.14 -0.14 0.01 0.22 0.22 0.24 0.32 0.29 0.29 0.20 0.28 0.22 0.43 0.43 0.29 0.11 0.33 0.33 0.04 -0.00 -0.00 -0.00 0.00 0.00 0.00 0.00 0.00 -0.00 -0.00 0.00 0.00
0.00 0.00 0.00 0.00 0.00 0.00 0.00 -0.00 -0.00 -0.00 -0.00 -0.00 -0.00 -0.00 -0.00 -0.00 -0.00 -0.00 -0.01 -0.00 -0.00 -0.00 -0.00 -0.00 -0.00 -0.00 -0.00 -0.00 0.00 0.00 0.00 0.00 0.00 0.00 0.00 0.00 0.00 0.00 0.00 -0.00 -0.00 -0.00 -0.01 -0.09 -0.20 -0.20 -0.27 -0.24 -0.17 -0.17 -0.05 -0.02 0.00 0.00 0.00 0.00 0.00 0.00 0.00 -0.01 -0.01 0.00 -0.00 -0.14 -0.23 -0.23 -0.22 -0.19 -0.24 -0.24 -0.26 -0.32 -0.06 -0.06 0.04 0.26 0.26 0.30 0.29 0.35 0.35 0.23 0.19 0.22 0.29 0.29 0.30 0.22 0.15 0.15 0.06 0.00 -0.02 -0.02 0.00 0.00 0.00 0.00 0.00 -0.00 -0.00 0.00 0.00
0.00 0.00 0.00 0.00 0.00 0.00 0.00 -0.00 -0.00 -0.00 -0.00 -0.00 -0.00 -0.00 -0.00 -0.00 -0.00 -0.00 -0.00 -0.00 -0.00 -0.00 -0.00 -0.00 -0.00 -0.00 -0.00 -0.00 0.00 0.00 0.00 0.00 0.00 0.00 0.00 -0.00 -0.00 0.00 0.00 0.00 0.00 -0.00 -0.00 -0.04 -0.09 -0.09 -0.20 -0.20 -0.21 -0.21 -0.08 -0.03 -0.00 -0.00 0.00 0.00 0.00 0.00 0.00 0.00 0.00 0.00 0.00 -0.15 -0.24 -0.24 -0.24 -0.23 -0.23 -0.23 -0.19 -0.24 -0.13 -0.13 0.05 0.18 0.18 0.27 0.19 0.26 0.26 0.32 0.19 0.16 0.20 0.20 0.34 0.17 0.12 0.12 0.18 0.01 -0.01 -0.01 -0.00 0.00 0.00 0.00 0.00 -0.00 -0.00 0.00 0.00
0.00 0.00 0.00 0.00 0.00 0.00 0.00 -0.00 0.00 0.00 -0.00 -0.00 -0.00 -0.00 -0.00 -0.00 -0.00 -0.00 -0.00 -0.00 -0.00 -0.00 -0.00 -0.00 -0.00 -0.00 -0.00 -0.00 -0.00 -0.00 -0.00 0.00 0.00 0.00 0.00 0.00 0.00 0.00 0.00 0.00 0.00 0.00 -0.00 -0.00 -0.03 -0.03 -0.10 -0.19 -0.19 -0.19 -0.14 -0.07 -0.02 -0.02 0.00 0.00 0.00 0.00 0.00 0.00 0.00 0.00 0.00 -0.13 -0.20 -0.20 -0.25 -0.29 -0.22 -0.22 -0.35 -0.22 -0.14 -0.14 0.06 0.18 0.18 0.29 0.25 0.31 0.31 0.28 0.26 0.22 0.16 0.16 0.23 0.22 0.12 0.12 0.13 0.16 -0.01 -0.01 -0.00 0.00 0.00 0.00 0.00 -0.00 -0.00 0.00 0.00
0.00 0.00 0.00 0.00 0.00 0.00 0.00 0.00 0.00 0.00 -0.00 0.00 -0.00 -0.00 -0.00 -0.00 -0.00 -0.00 -0.00 -0.00 -0.00 -0.00 -0.00 -0.00 -0.00 -0.00 -0.00 -0.00 -0.00 -0.00 -0.00 0.00 0.00 0.00 0.00 0.00 0.00 0.00 0.00 0.00 0.00 0.00 0.00 0.00 -0.02 -0.02 -0.05 -0.15 -0.22 -0.22 -0.17 -0.14 -0.07 -0.07 -0.00 0.00 0.00 0.00 0.00 0.00 0.00 0.00 0.00 0.00 -0.18 -0.18 -0.26 -0.26 -0.30 -0.30 -0.34 -0.21 -0.12 -0.12 0.01 0.15 0.15 0.34 0.35 0.40 0.40 0.39 0.29 0.23 0.22 0.22 0.18 0.15 0.21 0.21 0.09 0.12 0.01 0.01 0.00 0.00 0.00 0.00 0.00 -0.00 -0.00 0.00 0.00
0.00 0.00 0.00 0.00 0.00 0.00 0.00 0.00 0.00 0.00 0.00 0.00 0.00 0.00 0.00 0.00 0.00 -0.00 -0.00 -0.00 -0.00 -0.00 -0.00 -0.00 -0.00 -0.00 -0.00 -0.00 -0.00 -0.00 -0.01 -0.01 -0.01 -0.01 -0.00 0.00 0.00 0.00 0.00 0.00 0.00 0.00 0.00 0.00 -0.01 -0.01 -0.03 -0.05 -0.21 -0.21 -0.21 -0.14 -0.12 -0.12 -0.09 0.00 0.00 0.00 0.00 0.00 0.00 0.00 0.00 0.00 -0.01 -0.01 -0.25 -0.27 -0.28 -0.28 -0.30 -0.15 -0.06 -0.06 0.08 0.09 0.09 0.34 0.46 0.52 0.52 0.45 0.36 0.23 0.25 0.25 0.24 0.11 0.15 0.15 0.05 0.09 0.04 0.04 0.00 0.00 0.00 0.00 0.00 0.00 0.00 0.00 0.00
-0.00 -0.00 -0.00 -0.00 -0.00 -0.00 -0.00 0.00 0.00 0.00 0.00 0.00 0.00 0.00 0.00 0.00 0.00 0.00 0.00 -0.00 -0.00 -0.00 0.00 0.00 0.00 0.00 -0.00 -0.00 -0.00 -0.00 -0.00 -0.00 -0.00 -0.00 -0.00 -0.00 -0.00 0.00 0.00 0.00 0.00 0.00 0.00 0.00 0.00 0.00 -0.02 -0.03 -0.06 -0.06 -0.26 -0.19 -0.14 -0.14 -0.06 -0.06 -0.06 -0.00 -0.01 -0.11 -0.11 0.00 0.00 0.00 -0.11 -0.11 -0.15 -0.22 -0.27 -0.27 -0.31 -0.16 -0.14 -0.14 0.06 0.07 0.07 0.06 0.39 0.56 0.56 0.79 0.62 0.55 0.45 0.45 0.29 0.31 0.17 0.17 0.10 0.03 0.05 0.05 0.02 0.00 0.00 0.01 0.00 0.00 0.00 0.00 0.00
-0.00 -0.00 -0.00 -0.00 -0.00 -0.00 -0.00 -0.00 -0.00 -0.00 -0.00 -0.00 -0.00 -0.00 -0.00 -0.00 -0.00 -0.00 0.00 0.00 0.00 0.00 0.00 0.00 0.00 0.00 0.00 0.00 0.00 0.00 -0.00 0.00 0.00 0.00 0.00 0.00 0.00 0.00 0.00 0.00 0.00 0.00 0.00 0.00 -0.00 -0.00 -0.02 -0.03 -0.04 -0.04 -0.23 -0.22 -0.17 -0.17 -0.04 -0.04 -0.04 -0.04 -0.03 -0.18 -0.18 0.00 0.00 0.00 -0.18 -0.18 -0.22 -0.20 -0.31 -0.31 -0.26 -0.18 -0.16 -0.16 -0.04 0.06 0.06 0.04 0.13 0.47 0.47 0.81 0.88 0.77 0.55 0.55 0.44 0.33 0.26 0.26 0.07 0.05 0.01 0.01 0.03 0.00 0.00 0.00 0.00 0.00 0.00 0.00 0.00
-0.00 -0.00 -0.00 -0.00 -0.00 -0.00 -0.00 -0.00 -0.00 -0.00 -0.00 -0.00 -0.00 -0.00 -0.00 -0.00 -0.00 -0.00 -0.00 -0.00 -0.00 -0.00 -0.00 0.00 0.00 0.00 0.00 0.00 0.00 0.00 0.00 0.00 0.00 0.00 0.00 0.00 0.00 0.00 0.00 0.00 0.00 0.00 0.01 0.01 -0.01 -0.01 -0.03 -0.03 -0.03 -0.03 -0.12 -0.21 -0.16 -0.16 -0.10 -0.03 -0.03 -0.03 -0.07 -0.24 -0.24 -0.21 0.00 0.00 0.00 0.00 -0.31 -0.18 -0.37 -0.37 -0.25 -0.16 -0.11 -0.11 -0.06 0.01 0.01 0.06 0.05 0.07 0.07 0.80 0.99 1.14 0.77 0.77 0.51 0.35 0.31 0.31 0.21 0.04 0.02 0.02 0.00 0.01 0.01 0.00 0.00 0.01 0.01 0.00 0.00
-0.00 -0.00 -0.00 -0.00 -0.00 -0.00 -0.00 -0.00 -0.00 -0.00 -0.00 -0.00 -0.00 -0.00 -0.00 -0.00 -0.00 -0.00 -0.00 -0.00 -0.00 -0.00 -0.00 -0.00 -0.00 -0.00 -0.00 0.00 0.00 0.00 0.00 0.00 0.00 0.00 0.00 0.00 0.00 0.00 0.00 0.00 0.00 0.01 0.01 0.01 -0.01 -0.01 -0.04 -0.05 -0.03 -0.03 -0.09 -0.22 -0.18 -0.18 -0.12 -0.03 -0.03 -0.02 -0.02 -0.18 -0.18 -0.29 -0.25 0.00 0.00 0.00 -0.32 -0.29 -0.29 -0.29 -0.23 -0.10 -0.05 -0.05 -0.04 0.05 0.05 -0.00 0.07 0.04 0.04 0.17 0.96 1.18 1.11 1.11 0.76 0.67 0.35 0.35 0.25 0.20 0.01 0.01 0.01 0.01 0.01 0.00 0.00 0.00 0.00 0.00 0.00
-0.00 -0.00 -0.00 -0.00 -0.00 -0.00 -0.00 -0.00 -0.00 -0.00 -0.00 -0.00 -0.00 -0.00 -0.00 -0.00 -0.00 -0.00 -0.00 -0.00 -0.00 -0.00 -0.00 -0.00 -0.00 -0.00 -0.00 -0.00 0.00 0.00 0.00 0.00 0.00 0.00 0.00 0.00 0.00 0.00 0.00 0.00 0.00 0.00 0.01 0.01 -0.00 -0.00 -0.08 -0.10 -0.03 -0.03 -0.05 -0.16 -0.19 -0.19 -0.13 -0.06 -0.06 -0.02 -0.02 -0.12 -0.12 -0.33 -0.32 -0.23 0.00 0.00 -0.19 -0.43 -0.30 -0.30 -0.30 -0.12 -0.09 -0.09 -0.05 0.10 0.10 0.01 0.04 0.02 0.02 0.08 0.82 1.10 1.36 1.36 1.11 1.07 0.56 0.56 0.30 0.24 0.16 0.16 0.04 0.04 0.04 0.00 0.00 0.00 0.00 0.00 0.00
-0.00 -0.00 -0.00 -0.00 -0.00 -0.00 -0.00 -0.00 -0.00 -0.00 -0.00 -0.00 -0.00 -0.00 -0.00 -0.00 -0.00 -0.00 -0.00 -0.00 -0.00 -0.00 -0.00 -0.00 -0.00 -0.00 -0.00 -0.00 -0.00 -0.00 -0.00 -0.00 0.00 0.00 0.00 0.00 0.00 0.00 0.01 0.01 0.01 0.01 0.01 0.00 -0.00 -0.00 -0.11 -0.15 -0.12 -0.12 -0.05 -0.09 -0.13 -0.13 -0.13 -0.07 -0.07 -0.02 -0.01 -0.03 -0.03 -0.24 -0.38 -0.38 -0.03 -0.03 -0.24 -0.30 -0.37 -0.37 -0.30 -0.14 -0.10 -0.10 -0.05 0.05 0.05 0.04 0.04 -0.02 -0.02 0.01 0.21 0.97 1.34 1.34 1.47 1.40 0.95 0.95 0.50 0.30 0.19 0.19 0.11 0.02 0.02 0.00 0.00 0.00 0.00 0.00 0.00
-0.00 -0.00 -0.00 -0.00 -0.00 -0.00 -0.00 -0.00 -0.01 -0.01 -0.01 -0.00 -0.00 -0.00 -0.00 -0.00 -0.00 -0.00 -0.00 -0.00 -0.00 -0.00 -0.00 -0.00 -0.00 -0.00 -0.00 -0.00 -0.00 -0.00 -0.00 -0.00 0.00 0.00 0.00 0.00 0.00 0.01 0.01 0.01 0.01 0.01 0.01 0.00 -0.00 -0.00 -0.05 -0.17 -0.13 -0.13 -0.08 -0.12 -0.17 -0.17 -0.11 -0.09 -0.09 -0.05 -0.01 -0.03 -0.03 -0.08 -0.37 -0.44 -0.33 -0.33 -0.45 -0.46 -0.45 -0.45 -0.37 -0.11 -0.08 -0.08 -0.06 -0.08 -0.08 0.04 0.05 -0.06 -0.06 0.03 0.19 0.26 1.26 1.26 1.48 1.53 1.32 1.32 0.83 0.75 0.25 0.25 0.15 0.10 0.10 0.00 0.00 0.00 0.00 0.00 0.00
-0.00 -0.01 -0.01 -0.01 -0.00 -0.00 -0.00 -0.00 -0.01 -0.01 -0.01 -0.00 -0.00 -0.00 -0.00 -0.00 -0.00 -0.00 -0.00 -0.00 -0.00 -0.00 -0.00 -0.00 0.00 0.00 -0.00 -0.00 -0.00 -0.00 0.00 0.00 0.00 0.00 0.00 0.00 0.00 0.01 0.01 0.01 0.01 0.00 0.00 -0.00 -0.01 -0.01 -0.04 -0.14 -0.13 -0.13 -0.09 -0.16 -0.20 -0.20 -0.20 -0.15 -0.15 -0.08 -0.06 -0.03 -0.03 -0.07 -0.39 -0.45 -0.41 -0.41 -0.47 -0.64 -0.50 -0.50 -0.34 -0.21 -0.12 -0.12 -0.06 -0.08 -0.08 -0.05 0.06 -0.04 -0.04 -0.03 0.14 0.23 0.47 0.47 1.37 1.48 1.55 1.55 1.18 1.05 0.67 0.67 0.19 0.12 0.12 0.04 -0.00 0.00 0.00 0.00 0.01
-0.01 -0.01 -0.01 -0.01 -0.00 -0.00 -0.00 -0.00 -0.01 -0.01 -0.01 -0.01 -0.01 -0.01 -0.01 -0.01 -0.01 -0.00 -0.01 -0.01 -0.01 -0.01 -0.01 -0.01 -0.00 -0.00 -0.00 0.00 0.00 0.00 0.00 0.00 0.00 0.00 0.00 0.00 0.00 0.00 0.01 0.01 0.01 0.00 -0.00 -0.01 -0.01 -0.01 -0.02 -0.10 -0.14 -0.14 -0.10 -0.13 -0.22 -0.22 -0.21 -0.21 -0.21 -0.15 -0.13 -0.07 -0.07 -0.09 -0.06 -0.44 -0.44 -0.44 -0.41 -0.70 -0.55 -0.55 -0.51 -0.32 -0.16 -0.16 -0.25 -0.11 -0.11 -0.02 0.04 0.01 0.01 -0.02 -0.00 0.23 0.41 0.41 0.74 1.32 1.50 1.50 1.59 1.24 0.93 0.93 0.60 0.21 0.21 0.06 0.01 0.00 0.00 0.00 0.00
-0.01 -0.01 -0.01 -0.01 -0.01 -0.01 -0.01 -0.01 -0.01 -0.01 -0.01 -0.01 -0.01 -0.01 -0.01 -0.01 -0.01 -0.01 -0.01 -0.01 -0.01 -0.01 -0.01 -0.01 -0.01 -0.01 -0.00 -0.00 0.00 0.00 0.00 0.00 0.00 0.00 0.00 0.00 0.00 0.00 0.00 0.01 0.01 0.01 -0.00 -0.02 -0.02 -0.02 -0.03 -0.09 -0.18 -0.18 -0.14 -0.11 -0.21 -0.21 -0.22 -0.20 -0.20 -0.19 -0.12 -0.11 -0.11 -0.13 -0.16 -0.17 -0.46 -0.46 -0.42 -0.51 -0.61 -0.61 -0.53 -0.41 -0.22 -0.22 -0.25 -0.09 -0.09 -0.04 0.02 0.09 0.09 0.01 0.02 0.15 0.38 0.38 0.55 0.71 1.35 1.35 1.52 1.51 1.13 1.13 0.88 0.83 0.83 0.12 0.03 0.01 0.01 0.00 0.00
-0.01 -0.01 -0.01 -0.01 -0.01 -0.01 -0.01 -0.01 -0.01 -0.01 -0.01 -0.01 -0.01 -0.01 -0.01 -0.01 -0.01 -0.01 -0.02 -0.01 -0.01 -0.01 -0.01 -0.01 -0.00 -0.00 -0.00 -0.00 0.00 0.00 0.00 0.00 0.00 0.00 0.00 -0.00 -0.00 0.00 0.00 0.00 0.00 0.00 -0.01 -0.02 -0.03 -0.03 -0.03 -0.09 -0.14 -0.14 -0.13 -0.12 -0.16 -0.16 -0.17 -0.16 -0.16 -0.17 -0.07 -0.09 -0.09 -0.17 -0.14 -0.10 -0.33 -0.33 -0.46 -0.54 -0.60 -0.60 -0.53 -0.43 -0.23 -0.23 -0.22 -0.19 -0.19 -0.00 0.04 0.11 0.11 0.06 0.04 0.17 0.41 0.41 0.53 0.62 0.81 0.81 1.45 1.46 1.37 1.37 1.01 0.91 0.91 0.66 0.06 0.03 0.03 0.00 0.00
-0.01 -0.01 -0.01 -0.01 -0.01 -0.01 -0.01 -0.01 -0.01 -0.01 -0.01 -0.01 -0.02 -0.02 -0.01 -0.01 -0.01 -0.01 -0.01 -0.01 -0.01 -0.02 -0.02 -0.01 -0.01 -0.01 -0.01 -0.01 -0.01 -0.01 -0.01 0.00 0.00 0.00 0.00 0.00 0.00 0.00 0.00 0.00 0.00 0.00 0.00 -0.02 -0.04 -0.04 -0.03 -0.08 -0.14 -0.14 -0.17 -0.12 -0.14 -0.14 -0.11 -0.11 -0.11 -0.08 -0.05 -0.05 -0.05 -0.14 -0.13 -0.10 -0.12 -0.12 -0.49 -0.55 -0.59 -0.59 -0.61 -0.49 -0.39 -0.39 -0.13 -0.18 -0.18 -0.04 0.01 0.10 0.10 0.12 0.07 0.18 0.27 0.27 0.54 0.61 0.66 0.66 0.89 1.31 1.39 1.39 1.19 0.84 0.84 0.68 0.39 0.02 0.02 0.00 0.00
-0.01 -0.01 -0.01 -0.01 -0.01 -0.01 -0.01 -0.01 -0.01 -0.01 -0.01 -0.02 -0.02 -0.02 -0.01 -0.01 -0.01 -0.01 -0.01 -0.01 -0.01 -0.01 -0.01 -0.01 -0.01 -0.01 -0.01 -0.01 -0.01 -0.01 -0.01 -0.01 -0.00 -0.00 0.00 0.00 0.00 0.00 0.00 0.00 0.00 0.00 0.00 -0.02 -0.03 -0.03 -0.04 -0.10 -0.15 -0.15 -0.20 -0.13 -0.12 -0.12 -0.12 -0.09 -0.09 -0.07 -0.05 -0.03 -0.03 -0.11 -0.20 -0.10 -0.12 -0.12 -0.17 -0.54 -0.42 -0.42 -0.58 -0.68 -0.44 -0.44 -0.25 -0.17 -0.17 -0.03 -0.04 0.09 0.09 0.12 0.08 0.15 0.29 0.29 0.48 0.61 0.62 0.62 0.66 0.71 1.26 1.26 1.25 1.10 1.10 0.51 0.33 0.09 0.09 0.01 0.00
-0.00 -0.01 -0.01 -0.01 -0.01 -0.01 -0.01 -0.01 -0.02 -0.02 -0.02 -0.02 -0.02 -0.02 -0.01 -0.02 -0.02 -0.02 -0.01 -0.01 -0.01 -0.01 -0.01 -0.01 -0.01 -0.01 -0.01 -0.01 -0.01 -0.01 -0.01 -0.01 -0.01 -0.01 -0.00 0.00 0.00 -0.00 -0.00 0.00 0.00 0.00 0.00 -0.00 -0.04 -0.04 -0.06 -0.09 -0.16 -0.16 -0.19 -0.15 -0.11 -0.11 -0.12 -0.08 -0.08 -0.07 -0.05 -0.03 -0.03 -0.09 -0.21 -0.14 -0.10 -0.10 -0.12 -0.47 -0.27 -0.27 -0.42 -0.52 -0.54 -0.54 -0.25 -0.07 -0.07 -0.06 -0.05 -0.00 -0.00 0.10 0.09 0.11 0.30 0.30 0.55 0.83 0.64 0.64 0.66 0.67 0.69 0.69 1.18 1.07 1.07 0.88 0.20 0.05 0.05 0.01 0.00
-0.00 -0.00 -0.01 -0.01 -0.01 -0.01 -0.01 -0.02 -0.02 -0.02 -0.02 -0.02 -0.03 -0.03 -0.02 -0.02 -0.02 -0.01 -0.01 -0.01 -0.01 -0.01 -0.01 -0.00 -0.01 -0.01 -0.01 -0.01 -0.01 -0.01 -0.01 -0.01 -0.01 -0.01 -0.01 -0.02 -0.02 -0.01 -0.00 0.00 0.00 0.00 0.00 -0.01 -0.04 -0.04 -0.07 -0.12 -0.16 -0.16 -0.21 -0.19 -0.11 -0.11 -0.11 -0.09 -0.09 -0.12 -0.08 -0.05 -0.05 -0.06 -0.16 -0.22 -0.10 -0.10 -0.10 -0.13 -0.23 -0.23 -0.19 -0.33 -0.65 -0.65 -0.32 -0.09 -0.09 -0.13 -0.06 -0.01 -0.01 0.05 0.08 0.13 0.25 0.25 0.65 1.00 0.95 0.95 0.74 0.78 0.68 0.68 0.71 0.93 0.93 0.90 0.60 0.08 0.08 0.01 0.00
-0.00 -0.00 -0.01 -0.01 -0.01 -0.01 -0.01 -0.02 -0.02 -0.02 -0.02 -0.03 -0.03 -0.03 -0.03 -0.02 -0.02 -0.02 -0.02 -0.01 -0.01 -0.01 -0.01 -0.00 -0.00 -0.00 -0.01 -0.02 -0.02 -0.02 -0.01 -0.01 -0.01 -0.01 -0.01 -0.01 -0.01 -0.01 -0.01 -0.00 -0.00 0.00 -0.00 -0.01 -0.01 -0.01 -0.08 -0.15 -0.15 -0.15 -0.19 -0.19 -0.17 -0.17 -0.10 -0.10 -0.10 -0.09 -0.15 -0.06 -0.06 -0.05 -0.14 -0.23 -0.22 -0.22 -0.10 -0.11 -0.10 -0.10 -0.17 -0.23 -0.25 -0.25 -0.40 -0.14 -0.14 -0.20 -0.11 -0.00 -0.00 0.01 0.05 0.14 0.27 0.27 0.46 1.10 1.17 1.17 0.92 0.84 0.81 0.81 0.67 0.62 0.62 0.81 0.65 0.40 0.40 0.02 0.00
-0.00 -0.00 -0.01 -0.01 -0.01 -0.01 -0.01 -0.02 -0.02 -0.02 -0.02 -0.03 -0.03 -0.03 -0.03 -0.03 -0.03 -0.03 -0.03 -0.02 -0.02 -0.02 -0.02 -0.01 -0.01 -0.01 -0.01 -0.02 -0.02 -0.02 -0.01 -0.01 -0.01 -0.01 -0.01 -0.01 -0.01 -0.01 -0.01 -0.00 -0.00 -0.00 -0.01 -0.02 -0.02 -0.02 -0.08 -0.15 -0.18 -0.18 -0.19 -0.19 -0.17 -0.17 -0.09 -0.08 -0.08 -0.06 -0.16 -0.10 -0.10 -0.08 -0.19 -0.31 -0.28 -0.28 -0.19 -0.09 -0.09 -0.09 -0.07 -0.18 -0.16 -0.16 -0.47 -0.20 -0.20 -0.22 -0.20 -0.02 -0.02 0.00 0.03 0.12 0.25 0.25 0.48 0.87 1.38 1.38 1.15 1.02 0.87 0.87 0.79 0.75 0.75 0.69 0.66 0.52 0.52 0.23 0.00
-0.00 -0.00 -0.00 -0.01 -0.02 -0.02 -0.01 -0.02 -0.02 -0.02 -0.02 -0.03 -0.03 -0.03 -0.04 -0.04 -0.04 -0.04 -0.04 -0.03 -0.03 -0.02 -0.02 -0.01 -0.01 -0.01 -0.02 -0.02 -0.02 -0.02 -0.02 -0.01 -0.01 -0.01 -0.01 -0.01 -0.01 -0.01 -0.01 -0.01 -0.01 -0.00 -0.02 -0.03 -0.02 -0.02 -0.02 -0.15 -0.21 -0.21 -0.20 -0.19 -0.17 -0.17 -0.12 -0.07 -0.07 -0.06 -0.09 -0.15 -0.15 -0.13 -0.20 -0.39 -0.43 -0.43 -0.38 -0.25 -0.13 -0.13 -0.08 -0.13 -0.15 -0.15 -0.20 -0.36 -0.36 -0.26 -0.23 -0.11 -0.11 -0.01 0.02 0.01 0.21 0.21 0.48 0.85 1.33 1.33 1.39 1.27 0.97 0.97 0.90 0.84 0.84 0.73 0.73 0.67 0.67 0.38 0.14
-0.00 -0.00 -0.00 -0.01 -0.02 -0.02 -0.02 -0.02 -0.02 -0.02 -0.03 -0.03 -0.04 -0.04 -0.05 -0.05 -0.05 -0.04 -0.04 -0.03 -0.03 -0.02 -0.02 -0.02 -0.02 -0.02 -0.03 -0.02 -0.02 -0.02 -0.02 -0.02 -0.02 -0.02 -0.01 -0.02 -0.02 -0.02 -0.01 -0.01 -0.01 -0.01 -0.03 -0.03 -0.03 -0.03 -0.03 -0.16 -0.22 -0.22 -0.23 -0.17 -0.14 -0.14 -0.09 -0.08 -0.08 -0.06 -0.07 -0.14 -0.14 -0.14 -0.15 -0.24 -0.49 -0.49 -0.53 -0.51 -0.32 -0.32 -0.12 -0.10 -0.18 -0.18 -0.17 -0.29 -0.29 -0.15 -0.25 -0.11 -0.11 -0.09 0.01 -0.07 0.08 0.08 0.45 0.87 1.36 1.36 1.74 1.53 1.17 1.17 0.99 0.93 0.93 0.85 0.75 0.77 0.77 0.56 0.25
0.00 -0.00 -0.00 -0.01 -0.02 -0.02 -0.02 -0.03 -0.03 -0.03 -0.03 -0.04 -0.04 -0.04 -0.04 -0.05 -0.05 -0.04 -0.04 -0.05 -0.05 -0.02 -0.02 -0.02 -0.02 -0.02 -0.04 -0.04 -0.02 -0.02 -0.01 -0.01 -0.01 -0.01 -0.01 -0.01 -0.01 -0.02 -0.02 -0.01 -0.01 -0.01 -0.02 -0.04 -0.03 -0.03 -0.03 -0.05 -0.24 -0.24 -0.25 -0.18 -0.13 -0.13 -0.09 -0.08 -0.08 -0.05 -0.07 -0.13 -0.13 -0.13 -0.12 -0.19 -0.34 -0.34 -0.60 -0.62 -0.53 -0.53 -0.35 -0.23 -0.25 -0.25 -0.19 -0.16 -0.16 -0.16 -0.18 -0.10 -0.10 -0.08 -0.01 -0.03 0.03 0.03 0.08 0.90 1.45 1.45 1.86 2.17 1.43 1.43 1.17 1.13 1.13 0.98 0.88 0.86 0.86 0.78 0.44
0.00 -0.00 -0.00 -0.01 -0.01 -0.01 -0.02 -0.02 -0.03 -0.03 -0.03 -0.05 -0.04 -0.04 -0.04 -0.06 -0.06 -0.05 -0.04 -0.05 -0.05 -0.03 -0.03 -0.02 -0.02 -0.02 -0.02 -0.03 -0.02 -0.02 -0.01 -0.01 -0.01 -0.01 -0.01 -0.01 -0.01 -0.02 -0.02 -0.02 -0.02 -0.02 -0.02 -0.03 -0.04 -0.04 -0.05 -0.07 -0.19 -0.19 -0.26 -0.19 -0.16 -0.16 -0.09 -0.08 -0.08 -0.06 -0.06 -0.14 -0.14 -0.16 -0.09 -0.17 -0.31 -0.31 -0.48 -0.57 -0.60 -0.60 -0.47 -0.28 -0.27 -0.27 -0.25 -0.18 -0.18 -0.13 -0.12 -0.09 -0.09 -0.08 -0.02 -0.02 0.01 0.01 0.03 0.27 1.53 1.53 2.05 2.44 2.14 2.14 1.36 1.28 1.28 1.11 1.08 0.97 0.97 0.85 0.77
0.00 -0.00 -0.01 -0.01 -0.01 -0.01 -0.02 -0.02 -0.03 -0.03 -0.04 -0.05 -0.05 -0.05 -0.05 -0.06 -0.06 -0.05 -0.04 -0.04 -0.04 -0.03 -0.03 -0.02 -0.02 -0.02 -0.01 -0.01 -0.02 -0.02 -0.01 -0.01 -0.01 -0.01 -0.01 -0.01 -0.01 -0.02 -0.02 -0.02 -0.02 -0.04 -0.03 -0.03 -0.03 -0.03 -0.07 -0.09 -0.13 -0.13 -0.23 -0.21 -0.16 -0.16 -0.09 -0.09 -0.09 -0.08 -0.04 -0.15 -0.15 -0.17 -0.11 -0.14 -0.31 -0.31 -0.40 -0.45 -0.62 -0.62 -0.56 -0.31 -0.30 -0.30 -0.25 -0.23 -0.23 -0.08 -0.07 -0.17 -0.17 -0.06 -0.03 -0.01 -0.03 -0.03 -0.02 0.20 0.74 0.74 2.10 2.40 2.38 2.38 2.05 1.63 1.63 1.31 1.18 1.23 1.23 0.96 0.87
0.00 0.00 -0.01 -0.02 -0.02 -0.02 -0.02 -0.02 -0.02 -0.02 -0.05 -0.06 -0.06 -0.06 -0.06 -0.06 -0.06 -0.06 -0.05 -0.05 -0.05 -0.04 -0.02 -0.02 -0.02 -0.02 -0.01 -0.00 -0.00 -0.00 -0.01 -0.01 -0.01 -0.01 -0.01 -0.01 -0.01 -0.01 -0.01 -0.02 -0.02 -0.05 -0.05 -0.03 -0.04 -0.04 -0.08 -0.12 -0.15 -0.15 -0.17 -0.23 -0.18 -0.18 -0.15 -0.11 -0.11 -0.09 -0.06 -0.14 -0.14 -0.17 -0.10 -0.11 -0.32 -0.32 -0.40 -0.45 -0.50 -0.50 -0.58 -0.48 -0.30 -0.30 -0.28 -0.25 -0.25 -0.24 -0.04 -0.06 -0.06 -0.06 -0.02 -0.01 -0.02 -0.02 0.01 0.18 0.71 0.71 1.37 1.89 2.37 2.37 2.33 2.27 2.27 1.56 1.36 1.49 1.49 1.35 0.98
0.00 0.00 -0.01 -0.02 -0.02 -0.02 -0.02 -0.03 -0.05 -0.05 -0.07 -0.09 -0.10 -0.10 -0.08 -0.07 -0.07 -0.06 -0.10 -0.11 -0.11 -0.09 -0.03 -0.05 -0.06 -0.06 -0.04 -0.02 -0.01 -0.01 -0.00 -0.00 -0.00 -0.00 -0.00 -0.00 -0.00 -0.01 -0.01 -0.02 -0.02 -0.03 -0.05 -0.09 -0.06 -0.06 -0.06 -0.11 -0.20 -0.20 -0.27 -0.33 -0.21 -0.21 -0.15 -0.14 -0.14 -0.17 -0.12 -0.10 -0.10 -0.09 -0.06 -0.09 -0.22 -0.22 -0.39 -0.47 -0.50 -0.50 -0.33 -0.57 -0.50 -0.50 -0.36 -0.27 -0.27 -0.24 -0.18 -0.04 -0.04 0.00 0.00 0.00 -0.01 -0.01 0.01 -0.01 0.22 0.22 1.34 1.82 2.09 2.09 2.10 2.35 2.35 2.38 2.05 1.87 1.87 1.39 1.36
0.00 0.00 -0.00 -0.01 -0.02 -0.02 -0.02 -0.04 -0.05 -0.05 -0.08 -0.14 -0.15 -0.15 -0.12 -0.08 -0.08 -0.07 -0.10 -0.17 -0.17 -0.16 -0.14 -0.06 -0.06 -0.06 -0.06 -0.03 -0.02 -0.02 -0.01 -0.00 -0.00 -0.00 -0.00 -0.00 -0.00 -0.01 -0.01 -0.02 -0.02 -0.03 -0.05 -0.09 -0.10 -0.10 -0.09 -0.14 -0.20 -0.20 -0.33 -0.35 -0.36 -0.36 -0.16 -0.15 -0.15 -0.17 -0.19 -0.14 -0.14 -0.10 -0.05 -0.10 -0.18 -0.18 -0.21 -0.54 -0.54 -0.54 -0.42 -0.40 -0.50 -0.50 -0.42 -0.35 -0.35 -0.29 -0.15 -0.04 -0.04 -0.03 -0.00 0.00 0.00 0.00 0.01 0.04 0.22 0.22 0.79 1.85 2.07 2.07 2.06 2.10 2.10 2.39 2.30 2.04 2.04 1.63 1.16
0.00 0.00 -0.00 -0.01 -0.02 -0.02 -0.02 -0.02 -0.05 -0.05 -0.07 -0.22 -0.26 -0.26 -0.19 -0.06 -0.06 -0.06 -0.08 -0.13 -0.13 -0.19 -0.18 -0.09 -0.07 -0.07 -0.07 -0.05 -0.03 -0.03 -0.01 -0.00 -0.00 -0.00 0.00 -0.00 -0.00 -0.02 -0.02 -0.02 -0.02 -0.02 -0.07 -0.10 -0.10 -0.10 -0.13 -0.18 -0.23 -0.23 -0.32 -0.39 -0.36 -0.36 -0.16 -0.20 -0.20 -0.19 -0.20 -0.20 -0.20 -0.16 -0.09 -0.11 -0.14 -0.14 -0.19 -0.28 -0.63 -0.63 -0.47 -0.50 -0.39 -0.39 -0.43 -0.42 -0.42 -0.45 -0.18 -0.08 -0.08 -0.02 -0.00 0.00 -0.01 -0.01 0.01 0.06 0.25 0.25 0.79 1.42 2.09 2.09 2.09 2.12 2.12 2.08 2.25 2.00 2.00 1.70 1.45
0.00 0.00 -0.00 -0.01 -0.01 -0.01 -0.02 -0.02 -0.03 -0.03 -0.06 -0.26 -0.37 -0.37 -0.26 -0.07 -0.07 -0.10 -0.12 -0.14 -0.14 -0.17 -0.19 -0.12 -0.10 -0.10 -0.08 -0.07 -0.04 -0.04 -0.03 -0.03 -0.01 -0.01 -0.00 -0.00 -0.00 -0.04 -0.04 -0.02 -0.02 -0.02 -0.09 -0.12 -0.11 -0.11 -0.11 -0.22 -0.24 -0.24 -0.26 -0.32 -0.31 -0.31 -0.21 -0.21 -0.21 -0.25 -0.27 -0.23 -0.23 -0.22 -0.15 -0.10 -0.16 -0.16 -0.18 -0.25 -0.53 -0.53 -0.57 -0.56 -0.47 -0.47 -0.37 -0.42 -0.42 -0.35 -0.33 -0.08 -0.08 -0.00 -0.00 0.00 -0.01 -0.01 0.01 0.02 0.34 0.34 0.80 1.36 1.86 1.86 2.18 2.13 2.13 1.96 1.93 1.90 1.90 1.77 1.52
0.00 0.00 0.00 -0.01 -0.01 -0.01 -0.01 -0.01 -0.02 -0.02 -0.05 -0.25 -0.36 -0.36 -0.30 -0.09 -0.09 -0.11 -0.12 -0.10 -0.10 -0.05 -0.07 -0.13 -0.10 -0.10 -0.08 -0.07 -0.04 -0.04 -0.04 -0.03 -0.02 -0.02 -0.01 -0.01 -0.01 -0.04 -0.05 -0.04 -0.04 -0.02 -0.10 -0.14 -0.14 -0.14 -0.10 -0.20 -0.21 -0.21 -0.23 -0.27 -0.25 -0.25 -0.17 -0.19 -0.19 -0.29 -0.30 -0.24 -0.24 -0.23 -0.21 -0.15 -0.14 -0.14 -0.17 -0.24 -0.46 -0.46 -0.71 -0.61 -0.46 -0.46 -0.32 -0.29 -0.29 -0.21 -0.26 -0.18 -0.18 -0.00 -0.00 0.00 0.00 0.00 0.01 0.02 0.09 0.09 0.38 1.32 1.79 1.79 2.14 2.31 2.31 1.94 1.78 1.69 1.69 1.76 1.63
0.00 0.00 0.00 -0.00 -0.01 -0.01 -0.01 -0.01 -0.01 -0.01 -0.03 -0.18 -0.31 -0.31 -0.30 -0.18 -0.18 -0.11 -0.10 -0.09 -0.09 -0.06 -0.06 -0.17 -0.09 -0.09 -0.08 -0.09 -0.08 -0.08 -0.04 -0.03 -0.02 -0.02 -0.04 -0.08 -0.08 -0.08 -0.09 -0.08 -0.08 -0.05 -0.06 -0.15 -0.16 -0.16 -0.14 -0.20 -0.18 -0.18 -0.21 -0.24 -0.23 -0.23 -0.15 -0.18 -0.18 -0.27 -0.27 -0.25 -0.25 -0.25 -0.25 -0.23 -0.16 -0.16 -0.12 -0.19 -0.35 -0.35 -0.60 -0.62 -0.45 -0.45 -0.28 -0.19 -0.19 -0.12 -0.10 -0.15 -0.15 -0.09 -0.00 0.00 0.00 0.00 0.01 0.02 0.12 0.12 0.39 0.83 1.69 1.69 2.11 2.25 2.25 2.11 1.70 1.58 1.58 1.68 1.75
0.00 0.00 0.00 -0.00 -0.00 -0.00 -0.01 -0.01 -0.01 -0.01 -0.02 -0.08 -0.25 -0.25 -0.27 -0.25 -0.25 -0.11 -0.11 -0.10 -0.10 -0.08 -0.09 -0.13 -0.12 -0.12 -0.11 -0.12 -0.09 -0.09 -0.05 -0.04 -0.06 -0.06 -0.12 -0.15 -0.15 -0.13 -0.09 -0.08 -0.08 -0.08 -0.09 -0.16 -0.18 -0.18 -0.16 -0.20 -0.16 -0.16 -0.20 -0.23 -0.22 -0.22 -0.14 -0.18 -0.18 -0.19 -0.25 -0.27 -0.27 -0.28 -0.24 -0.26 -0.18 -0.18 -0.12 -0.14 -0.27 -0.27 -0.54 -0.63 -0.41 -0.41 -0.25 -0.16 -0.16 -0.10 -0.06 -0.08 -0.08 -0.07 -0.02 -0.00 0.00 0.00 0.00 -0.00 0.14 0.14 0.39 0.88 1.34 1.34 2.00 2.24 2.24 2.15 1.83 1.43 1.43 1.48 1.59
0.00 0.00 0.00 0.00 -0.00 -0.00 -0.01 -0.01 -0.01 -0.01 -0.02 -0.05 -0.15 -0.15 -0.21 -0.32 -0.32 -0.17 -0.08 -0.08 -0.08 -0.09 -0.09 -0.09 -0.15 -0.15 -0.09 -0.10 -0.05 -0.05 -0.04 -0.08 -0.09 -0.09 -0.22 -0.11 -0.11 -0.10 -0.09 -0.07 -0.07 -0.08 -0.10 -0.14 -0.22 -0.22 -0.20 -0.22 -0.18 -0.18 -0.18 -0.23 -0.21 -0.21 -0.13 -0.18 -0.18 -0.15 -0.16 -0.26 -0.26 -0.27 -0.25 -0.28 -0.19 -0.19 -0.16 -0.09 -0.21 -0.21 -0.44 -0.57 -0.56 -0.56 -0.19 -0.14 -0.14 -0.07 -0.07 -0.05 -0.05 -0.06 -0.01 -0.01 0.00 0.00 0.00 0.00 0.04 0.04 0.46 0.80 1.33 1.33 1.76 2.17 2.17 2.20 1.82 1.47 1.47 1.30 1.39
0.00 0.00 0.00 0.00 -0.00 -0.00 -0.00 -0.01 -0.01 -0.01 -0.02 -0.03 -0.11 -0.11 -0.11 -0.18 -0.18 -0.26 -0.22 -0.23 -0.23 -0.10 -0.10 -0.04 -0.12 -0.12 -0.07 -0.10 -0.07 -0.07 -0.08 -0.10 -0.14 -0.14 -0.14 -0.08 -0.08 -0.06 -0.09 -0.08 -0.08 -0.13 -0.13 -0.14 -0.20 -0.20 -0.24 -0.28 -0.18 -0.18 -0.16 -0.23 -0.21 -0.21 -0.21 -0.16 -0.16 -0.13 -0.13 -0.15 -0.15 -0.25 -0.25 -0.28 -0.22 -0.22 -0.22 -0.17 -0.16 -0.16 -0.37 -0.50 -0.49 -0.49 -0.30 -0.10 -0.10 -0.09 -0.08 -0.07 -0.07 -0.03 -0.00 -0.01 0.00 0.00 0.00 0.01 0.08 0.08 0.25 0.83 1.40 1.40 1.82 2.13 2.13 2.04 1.85 1.41 1.41 1.17 1.12
0.00 0.00 0.00 0.00 0.00 0.00 -0.00 -0.01 -0.01 -0.01 -0.02 -0.04 -0.09 -0.09 -0.11 -0.12 -0.12 -0.14 -0.33 -0.35 -0.35 -0.11 -0.13 -0.06 -0.09 -0.09 -0.10 -0.10 -0.12 -0.12 -0.10 -0.07 -0.07 -0.07 -0.05 -0.06 -0.06 -0.04 -0.06 -0.13 -0.13 -0.15 -0.14 -0.17 -0.23 -0.23 -0.39 -0.30 -0.22 -0.22 -0.20 -0.25 -0.24 -0.24 -0.24 -0.21 -0.21 -0.12 -0.11 -0.15 -0.15 -0.22 -0.23 -0.22 -0.24 -0.24 -0.26 -0.20 -0.18 -0.18 -0.19 -0.40 -0.41 -0.41 -0.26 -0.15 -0.15 -0.07 -0.05 -0.06 -0.06 -0.01 -0.00 0.00 -0.00 -0.00 -0.00 0.02 0.12 0.12 0.32 0.44 1.44 1.44 1.92 2.23 2.23 2.11 1.98 1.35 1.35 1.08 1.02
0.00 0.00 0.00 0.00 0.00 0.00 0.00 -0.01 -0.02 -0.02 -0.04 -0.08 -0.12 -0.12 -0.14 -0.14 -0.14 -0.12 -0.09 -0.37 -0.37 -0.22 -0.10 -0.11 -0.05 -0.05 -0.03 -0.02 -0.08 -0.08 -0.08 -0.12 -0.04 -0.04 -0.01 -0.05 -0.05 -0.04 -0.10 -0.21 -0.21 -0.13 -0.14 -0.20 -0.28 -0.28 -0.36 -0.36 -0.28 -0.28 -0.20 -0.20 -0.28 -0.28 -0.27 -0.28 -0.28 -0.10 -0.09 -0.18 -0.18 -0.23 -0.23 -0.18 -0.19 -0.19 -0.26 -0.27 -0.20 -0.20 -0.19 -0.28 -0.27 -0.27 -0.15 -0.09 -0.09 -0.17 0.02 0.03 0.03 0.09 0.07 0.06 0.02 0.02 0.01 0.03 0.16 0.16 0.35 0.43 0.74 0.74 1.39 2.21 2.21 2.20 2.04 1.77 1.77 1.13 0.98
0.00 0.00 0.00 0.00 0.00 0.00 0.00 -0.00 -0.03 -0.03 -0.08 -0.16 -0.18 -0.18 -0.17 -0.16 -0.16 -0.14 -0.13 -0.12 -0.12 -0.35 -0.15 -0.09 -0.12 -0.12 -0.02 -0.01 -0.06 -0.06 -0.07 -0.07 -0.06 -0.06 -0.06 -0.02 -0.02 -0.06 -0.06 -0.10 -0.10 -0.13 -0.16 -0.16 -0.26 -0.26 -0.23 -0.30 -0.32 -0.32 -0.20 -0.16 -0.32 -0.32 -0.31 -0.31 -0.31 -0.21 -0.12 -0.20 -0.20 -0.26 -0.33 -0.23 -0.19 -0.19 -0.32 -0.27 -0.25 -0.25 -0.22 -0.26 -0.20 -0.20 -0.12 -0.16 -0.16 -0.26 -0.05 0.12 0.12 0.15 0.15 0.12 0.03 0.03 0.06 0.02 0.04 0.04 0.21 0.43 0.72 0.72 1.23 1.69 1.69 2.26 2.06 1.90 1.90 1.53 1.18
0.00 0.00 0.00 0.00 0.00 0.00 0.00 -0.00 -0.02 -0.02 -0.16 -0.23 -0.25 -0.25 -0.19 -0.19 -0.19 -0.21 -0.20 -0.12 -0.12 -0.15 -0.29 -0.13 -0.12 -0.12 -0.05 -0.04 -0.08 -0.08 -0.09 -0.09 -0.08 -0.08 -0.10 -0.08 -0.08 -0.10 -0.03 -0.05 -0.05 -0.17 -0.26 -0.16 -0.14 -0.14 -0.07 -0.16 -0.30 -0.30 -0.23 -0.18 -0.33 -0.33 -0.35 -0.32 -0.32 -0.24 -0.17 -0.21 -0.21 -0.28 -0.36 -0.35 -0.45 -0.45 -0.33 -0.25 -0.27 -0.27 -0.23 -0.18 -0.17 -0.17 -0.14 -0.23 -0.23 -0.42 -0.15 0.05 0.05 0.10 0.13 0.11 0.10 0.10 0.02 0.05 0.04 0.04 0.21 0.37 0.65 0.65 0.95 1.49 1.49 2.03 2.07 1.83 1.83 1.54 1.21
0.00 0.00 0.00 0.00 0.00 0.00 0.00 0.00 -0.00 -0.00 -0.17 -0.24 -0.27 -0.27 -0.25 -0.23 -0.23 -0.25 -0.23 -0.16 -0.16 -0.08 -0.16 -0.24 -0.12 -0.12 -0.10 -0.09 -0.11 -0.11 -0.14 -0.14 -0.14 -0.14 -0.10 -0.10 -0.10 -0.10 -0.12 0.01 0.01 -0.11 -0.25 -0.27 -0.05 -0.05 -0.00 -0.07 -0.31 -0.31 -0.26 -0.18 -0.36 -0.36 -0.36 -0.29 -0.29 -0.26 -0.20 -0.26 -0.26 -0.23 -0.33 -0.39 -0.44 -0.44 -0.32 -0.32 -0.33 -0.33 -0.24 -0.13 -0.17 -0.17 -0.15 -0.14 -0.14 -0.51 -0.32 -0.10 -0.10 -0.11 0.03 0.03 0.03 0.03 0.02 0.02 0.06 0.06 0.24 0.39 0.45 0.45 0.87 1.31 1.31 1.77 1.93 1.73 1.73 1.58 1.28
0.00 0.00 0.00 0.00 0.00 0.00 0.00 0.00 0.00 0.00 -0.08 -0.15 -0.24 -0.24 -0.29 -0.20 -0.20 -0.23 -0.25 -0.22 -0.22 -0.12 -0.09 -0.19 -0.08 -0.08 -0.13 -0.11 -0.12 -0.12 -0.09 -0.09 -0.13 -0.13 -0.14 -0.10 -0.10 -0.17 -0.20 -0.12 -0.12 -0.04 -0.11 -0.12 -0.05 -0.05 -0.07 -0.15 -0.40 -0.40 -0.45 -0.23 -0.29 -0.29 -0.27 -0.25 -0.25 -0.22 -0.22 -0.23 -0.23 -0.19 -0.24 -0.39 -0.42 -0.42 -0.42 -0.37 -0.56 -0.56 -0.53 -0.42 -0.16 -0.16 -0.13 -0.11 -0.11 -0.23 -0.45 -0.18 -0.18 -0.14 -0.09 0.00 0.05 0.05 0.09 0.08 0.06 0.06 0.24 0.41 0.49 0.49 0.63 0.76 0.76 1.53 1.74 1.51 1.51 1.53 1.35
0.00 0.00 0.00 0.00 0.00 0.00 0.00 0.00 0.00 0.00 -0.00 -0.06 -0.15 -0.15 -0.26 -0.17 -0.17 -0.22 -0.27 -0.24 -0.24 -0.14 -0.14 -0.14 -0.18 -0.18 -0.10 -0.13 -0.13 -0.13 -0.11 -0.07 -0.09 -0.09 -0.11 -0.13 -0.13 -0.20 -0.21 -0.16 -0.16 -0.10 -0.10 -0.03 -0.05 -0.05 -0.18 -0.35 -0.41 -0.41 -0.43 -0.29 -0.28 -0.28 -0.25 -0.25 -0.25 -0.19 -0.24 -0.16 -0.16 -0.17 -0.20 -0.34 -0.40 -0.40 -0.46 -0.35 -0.41 -0.41 -0.41 -0.48 -0.27 -0.27 -0.14 -0.14 -0.14 -0.16 -0.39 -0.27 -0.27 -0.21 -0.12 -0.02 0.06 0.06 0.11 0.13 0.09 0.09 0.11 0.44 0.49 0.49 0.63 0.89 0.89 1.15 1.58 1.32 1.32 1.29 1.40
0.00 0.00 0.00 0.00 0.00 0.00 0.00 0.00 0.00 0.00 -0.00 -0.03 -0.08 -0.08 -0.10 -0.12 -0.12 -0.21 -0.26 -0.29 -0.29 -0.22 -0.15 -0.13 -0.18 -0.18 -0.14 -0.17 -0.15 -0.15 -0.10 -0.09 -0.10 -0.10 -0.09 -0.09 -0.09 -0.10 -0.16 -0.19 -0.19 -0.15 -0.21 -0.15 -0.22 -0.22 -0.16 -0.45 -0.42 -0.42 -0.36 -0.43 -0.47 -0.47 -0.38 -0.30 -0.30 -0.28 -0.28 -0.14 -0.14 -0.10 -0.15 -0.28 -0.32 -0.32 -0.46 -0.36 -0.27 -0.27 -0.31 -0.38 -0.34 -0.34 -0.21 -0.17 -0.17 -0.14 -0.28 -0.54 -0.54 -0.31 -0.19 -0.06 0.06 0.06 0.08 0.10 0.09 0.09 0.09 0.19 0.39 0.39 0.61 0.73 0.73 1.07 1.26 1.26 1.26 1.13 1.21
0.00 0.00 0.00 0.00 0.00 0.00 0.00 0.00 0.00 0.00 0.00 -0.02 -0.05 -0.05 -0.05 -0.10 -0.10 -0.17 -0.23 -0.28 -0.28 -0.28 -0.21 -0.16 -0.13 -0.13 -0.16 -0.16 -0.16 -0.16 -0.14 -0.10 -0.17 -0.17 -0.13 -0.11 -0.11 -0.10 -0.08 -0.13 -0.13 -0.17 -0.20 -0.34 -0.43 -0.43 -0.31 -0.25 -0.41 -0.41 -0.33 -0.23 -0.24 -0.24 -0.59 -0.49 -0.49 -0.28 -0.26 -0.21 -0.21 -0.10 -0.11 -0.17 -0.24 -0.24 -0.39 -0.41 -0.27 -0.27 -0.21 -0.29 -0.30 -0.30 -0.20 -0.12 -0.12 -0.17 -0.20 -0.43 -0.43 -0.48 -0.38 -0.11 0.01 0.01 0.06 0.10 0.06 0.06 0.08 0.15 0.34 0.34 0.43 0.72 0.72 1.04 1.24 1.39 1.39 1.29 1.05
0.00 0.00 0.00 0.00 0.00 0.00 0.00 0.00 0.00 0.00 0.00 -0.02 -0.02 -0.02 -0.02 -0.06 -0.06 -0.14 -0.18 -0.23 -0.23 -0.25 -0.24 -0.19 -0.12 -0.12 -0.13 -0.20 -0.18 -0.18 -0.12 -0.11 -0.21 -0.21 -0.19 -0.17 -0.17 -0.15 -0.10 -0.10 -0.10 -0.12 -0.15 -0.52 -0.50 -0.50 -0.41 -0.31 -0.36 -0.36 -0.30 -0.34 -0.16 -0.16 -0.23 -0.53 -0.53 -0.40 -0.49 -0.26 -0.26 -0.14 -0.13 -0.12 -0.25 -0.25 -0.33 -0.38 -0.30 -0.30 -0.19 -0.14 -0.28 -0.28 -0.21 -0.12 -0.12 -0.11 -0.17 -0.32 -0.32 -0.41 -0.43 -0.33 -0.04 -0.04 0.04 0.10 0.12 0.12 0.10 0.14 0.27 0.27 0.35 0.47 0.47 0.69 1.26 1.40 1.40 1.35 1.07